Regional Weather Roundup
Issued by NWS

Home | Current Version | Previous Version | Text Only | Print | Product List | Glossary On
Versions: 1 2 3 4 5 6 7 8 9 10 11 12 13 14 15 16 17 18 19 20 21 22 23 24 25 26 27 28 29 30 31 32 33 34 35 36 37 38 39 40 41 42 43 44 45 46 47 48 49 50
000
ASUS43 KLSX 270910
RWRMO

WEATHER SUMMARY FOR MISSOURI
NATIONAL WEATHER SERVICE SPRINGFIELD MO
300 AM CST MON FEB 27 2017

NOTE: "FAIR" INDICATES FEW OR NO CLOUDS BELOW 12,000 FEET WITH NO
       SIGNIFICANT WEATHER AND/OR OBSTRUCTIONS TO VISIBILITY.
       CURRENT SKY AND/OR WEATHER CONDITIONS ARE NOT AVAILABLE FOR
       CHILLICOTHE AND FARMINGTON.

MOZ001>031-035>038-043-044-053-054-271000-
...NORTHERN AND WESTERN MISSOURI...

CITY           SKY/WX    TMP DP  RH WIND       PRES   REMARKS
KANSAS CTY INT PTCLDY    29  28  96 NE3       30.02F FOG
KANSAS C DTWN  CLEAR     33  32  96 CALM      30.03S
LEE`S SUMMIT   CLEAR     31  31 100 SE6       30.03S FOG     WCI  25
ST JOSEPH      FOG       27  27 100 S3        30.02F VSB 1/4
CHILLICOTHE      N/A     26  25  96 CALM      30.06S
KIRKSVILLE     FOG       26  24  92 CALM      30.06S VSB 1/4

$$
MOZ066>068-077>081-088>096-101>105-271000-
...SOUTHWEST MISSOURI...

CITY           SKY/WX    TMP DP  RH WIND       PRES   REMARKS
SPRINGFIELD    CLEAR     37  27  67 SE10      30.00F WCI  30
JOPLIN         CLEAR     36  29  75 SE6       29.99F
BRANSON        PTCLDY    37  30  75 CALM      30.03R

$$
MOZ032>034-039>042-045>050-055>058-069>072-271000-
...CENTRAL MISSOURI...

CITY           SKY/WX    TMP DP  RH WIND       PRES   REMARKS
COLUMBIA       CLEAR     35  34  96 E6        30.05S
JEFFERSON CITY CLEAR     33  32  96 CALM      30.06F
ROLLA          CLEAR     36  32  85 SE7       30.03S
SEDALIA        FOG       31  29  92 E5        30.05S VSB 1/2 WCI  26
WHITEMAN AFB   FOG       28  28 100 E5        30.04R VSB 1/2 WCI  22
WARRENSBURG    FOG       28  28 100 E5        30.04F VSB 1/4 WCI  23
OSAGE BEACH    CLEAR     31  29  92 CALM      30.05S FOG

$$
MOZ051-052-059>065-271000-
...EAST CENTRAL MISSOURI...

CITY           SKY/WX    TMP DP  RH WIND       PRES   REMARKS
ST LOUIS INTL  CLOUDY    42  35  76 E5        30.09F
SPIRIT OF STL  CLOUDY    36  34  92 CALM      30.08F
ST CHARLES     CLOUDY    39  37  92 E6        30.09F

$$
MOZ072>076-082>087-097>100-106>115-271000-
...SOUTH CENTRAL AND SOUTHEAST MISSOURI...

CITY           SKY/WX    TMP DP  RH WIND       PRES   REMARKS
CAPE GIRARDEAU CLOUDY    44  40  85 SE6       30.11F
FARMINGTON     CLOUDY    41  32  70 S7        30.07F
POPLAR BLUFF   CLOUDY    47  42  83 SE6       30.08S
WEST PLAINS    CLEAR     37  26  64 CALM      30.04F

$$




USA.gov is the U.S. government's official web portal to all federal, state and local government web resources and services.